Location: Clayton (historical)
(34.0300°N, 118.0259°W)
Time: 07:50:51
(UTC+00:00)

H-2A R/B - Pass Details

Date: 29 October 2020
Orbit: 528 x 653 km, 98.3° (Epoch: 29 November)

Event Time Altitude Azimuth Distance (km) Brightness Sun altitude
Rises 13:35:39 0° 13° (NNE) 2,905 6.0 -7.7°
Reaches altitude 10° 13:37:53 10° 15° (NNE) 1,977 5.2 -7.2°
Maximum altitude 13:42:11 81° 102° (ESE) 609 2.7 -6.3°
Drops below altitude 10° 13:46:17 10° 190° (S) 1,887 5.1 -5.5°
Sets 13:48:23 0° 191° (SSW) 2,761 5.9 -5.1°
